Find Starlink 32261

NORAD ID: 61530 Int'l Des: 2024-183 Owner: SPXS Country: US Constellation: starlink operational
LEOCIRCULAR

Live Position

Loading 3D Globe...

About Starlink 32261

Description loading...

Upcoming Passes

Passes for default location (London). Set your location on the main map for personalized predictions.

Altitude History

Loading altitude history...

Two-Line Element Set

1 61530U 24183X 26104.37393600 .00001039 00000-0 47206-4 0 9993
2 61530 53.1608 336.8588 0001311 91.6137 268.5014 15.30185781 85114
Epoch: Apr 14, 2026 • Age: 14 hours

Current Status

Altitude 480.5 km
Velocity 7.63 km/s
Sub-Earth Point 51.38°N, 151.5°W
Launch Date Oct 15, 2024
Age 1.4 years
Type internet

Technical Details

Classification Payload
Mass 730.00 kg
Dry Mass 700.00 kg
Total Mass 730.00 kg
Length 0.30 m
Diameter 4.10 m
Span 29.00 m
Shape Box + pan
Manufacturer SPXS
Bus Type Starlink V2M
Phase Status In Orbit
Owner/State SPXS/US

Most Searched